星链-5759 (STARLINK-5759 )

导读 | 星芒AI

STARLINK-5759 是 SpaceX Starlink 卫星互联网项目中的一颗低轨卫星。该卫星属于 Starlink 群体的一部分,旨在为全球用户提供高速互联网服务。它运行在约 550 公里的近地轨道上,采用先进的通信技术,支持宽带连接。STARLINK-5759 于 2022 年发射,是 SpaceX 扩展其卫星网络、提升全球网络覆盖能力计划中的重要一环。该卫星设计寿命较长,具备自动避障功能,以减少与其他卫星或太空碎片的碰撞风险。

基本信息
目录编号:
55592
目录名称:
STARLINK-5759
国际标识:
2023-020Z
轨道中心:
EARTH
卫星名称:
星链-5759
卫星全名:
星链-5759 (STARLINK-5759 )
卫星状态:
在轨 (已飞行1043 天)
发射日期:
2023-02-12 UTC
国别 :
美国 (US)
星等 :
--
轨道信息
数据来源 国际轨道数据
星历时间: 2025-12-21T05:59:09+0800
18小时前
查看轨道信息
半长轴: 6937.225km
偏心率: 0.0000496
轨道倾角: 43.004°
近地点辐角 280.081°
升交点赤经 72.335°
平近点角 79.997°
近地点: 558.743km
远地点: 559.433km
周期: 95.838分钟
每日圈数: 15.025335
详细信息
固有亮度:
5
最大亮度:
2.5
卫星平台:
Starlink v1.5
覆盖范围:
全球
运营商:
太空探索技术公司
运营商所在国:
美国
制造商(研发单位):
太空探索技术公司
制造商所在国:
美国
使用方式:
暂无
卫星简介
星链(Starlink)计划是由太空探索技术公司(SpaceX)提出的一个巨型低轨卫星互联网星座项目,计划在2019年至2024年间在太空搭建由约1.2万颗卫星组成的“星链”网络,其中1584颗将部署在地球上空550千米处的近地轨道,并从2020年开始工作。该卫星仍在工作。
2D轨道图
3D轨道图
轨道高度分析图
轨道倾角分析图
轨道综合分析图
查看轨道综合分析图